This demonstration page uses our WeatherBlox Daily Observations layout. Learn more.

Left ArrowRight Arrow

Hourly Observations for September 5, 2015

Temp ( °F °C ) Dew Point ( °F °C ) Humidity (%) Winds ( mph kmh ) Pressure ( in mb ) Visibility ( mi km ) Precip ( " mm )
12:15 am 00:15 Clear 75 24 73 23 94 94 Calm 30.15 1021 10 16 0.00 0.00
12:35 am 00:35 Partly Cloudy 75 24 73 23 94 94 ENE 3 6 30.15 1021 7 11 0.00 0.00
12:55 am 00:55 Mostly Cloudy with Nearby Thunderstorms 75 24 73 23 94 94 Calm 30.18 1022 7 11 0.00 0.00
1:15 am 01:15 Mostly Cloudy 75 24 73 23 94 94 ESE 6 9 30.18 1022 7 11 0.00 0.00
1:35 am 01:35 Partly Cloudy 73 23 73 23 100 100 E 3 6 30.18 1022 7 11 0.00 0.00
1:55 am 01:55 Partly Cloudy with Nearby Thunderstorms 73 23 73 23 100 100 SE 5 7 30.18 1022 7 11 0.00 0.00
2:15 am 02:15 Partly Cloudy 73 23 72 22 94 94 SE 5 7 30.18 1022 7 11 0.00 0.00
2:35 am 02:35 Partly Cloudy 73 23 72 22 94 94 SE 5 7 30.18 1022 7 11 0.00 0.00
2:55 am 02:55 Mostly Cloudy 73 23 72 22 94 94 Calm 30.18 1022 7 11 0.00 0.00
3:15 am 03:15 Cloudy 73 23 72 22 94 94 Calm 30.18 1022 7 11 0.00 0.00
3:35 am 03:35 Cloudy 73 23 72 22 94 94 E 3 6 30.18 1022 7 11 0.00 0.00
3:55 am 03:55 Cloudy 73 23 72 22 94 94 ENE 7 11 30.18 1022 7 11 0.00 0.00
4:15 am 04:15 Mostly Cloudy 73 23 72 22 94 94 E 3 6 30.18 1022 7 11 0.00 0.00
4:35 am 04:35 Partly Cloudy 72 22 72 22 100 100 E 3 6 30.18 1022 7 11 0.00 0.00
4:55 am 04:55 Mostly Cloudy 72 22 72 22 100 100 Calm 30.21 1023 7 11 0.00 0.00
5:15 am 05:15 Cloudy 72 22 72 22 100 100 Calm 30.21 1023 7 11 0.00 0.00
5:35 am 05:35 Cloudy 72 22 72 22 100 100 Calm 30.21 1023 7 11 0.00 0.00
5:55 am 05:55 Cloudy 72 22 72 22 100 100 Calm 30.21 1023 7 11 0.00 0.00
6:15 am 06:15 Cloudy 72 22 72 22 100 100 NE 3 6 30.21 1023 7 11 0.00 0.00
6:35 am 06:35 Cloudy 72 22 72 22 100 100 Calm 30.24 1024 7 11 0.00 0.00
6:55 am 06:55 Cloudy 72 22 72 22 100 100 N 3 6 30.24 1024 7 11 0.00 0.00
7:15 am 07:15 Cloudy 72 22 72 22 100 100 NNE 5 7 30.24 1024 7 11 0.00 0.00
7:35 am 07:35 Cloudy 72 22 70 21 94 94 NNE 7 11 30.24 1024 7 11 0.00 0.00
7:55 am 07:55 Cloudy 73 23 70 21 89 89 NE 5 7 30.24 1024 7 11 0.00 0.00
8:15 am 08:15 Cloudy 73 23 70 21 89 89 NNE 5 7 30.24 1024 10 16 0.00 0.00
8:35 am 08:35 Cloudy 72 22 70 21 94 94 NE 3 6 30.24 1024 7 11 0.00 0.00
8:55 am 08:55 Cloudy 73 23 70 21 89 89 NE 5 7 30.24 1024 7 11 0.00 0.00
9:15 am 09:15 Cloudy 73 23 70 21 89 89 NE 6 9 30.27 1025 10 16 0.00 0.00
9:35 am 09:35 Cloudy 73 23 70 21 89 89 NE 3 6 30.27 1025 7 11 0.00 0.00
9:55 am 09:55 Cloudy 73 23 72 22 94 94 E 5 7 30.27 1025 10 16 0.00 0.00
10:15 am 10:15 Cloudy 73 23 70 21 89 89 E 5 7 30.27 1025 7 11 0.00 0.00
10:35 am 10:35 Cloudy 73 23 70 21 89 89 ENE 5 7 30.27 1025 7 11 0.00 0.00
10:55 am 10:55 Cloudy 77 25 70 21 79 79 NE 6 9 30.27 1025 10 16 0.00 0.00
11:15 am 11:15 Cloudy 79 26 70 21 74 74 ENE 7 11 30.27 1025 10 16 0.00 0.00
11:35 am 11:35 Cloudy 79 26 70 21 74 74 E 7 11 30.27 1025 10 16 0.00 0.00
11:55 am 11:55 Cloudy 79 26 68 20 70 70 E 5 7 30.27 1025 10 16 0.00 0.00
12:15 pm 12:15 Cloudy 79 26 70 21 74 74 SSE 6 9 30.27 1025 10 16 0.00 0.00
12:35 pm 12:35 Cloudy 81 27 68 20 66 66 N 3 6 30.24 1024 10 16 0.00 0.00
12:55 pm 12:55 Cloudy 81 27 68 20 66 66 NE 5 7 30.24 1024 10 16 0.00 0.00
1:15 pm 13:15 Mostly Cloudy 82 28 68 20 62 62 ESE 3 6 30.24 1024 10 16 0.00 0.00
1:35 pm 13:35 Mostly Cloudy 81 27 68 20 66 66 Calm 30.24 1024 10 16 0.00 0.00
1:55 pm 13:55 Cloudy 82 28 68 20 62 62 ESE 5 7 30.24 1024 10 16 0.00 0.00
2:15 pm 14:15 Mostly Cloudy 82 28 66 19 58 58 S 7 11 30.24 1024 10 16 0.00 0.00
2:35 pm 14:35 Mostly Cloudy 84 29 68 20 58 58 NNE 5 7 30.21 1023 10 16 0.00 0.00
2:55 pm 14:55 Mostly Cloudy 86 30 66 19 52 52 S 7 11 30.21 1023 10 16 0.00 0.00
3:15 pm 15:15 Mostly Cloudy 86 30 68 20 55 55 SE 3 6 30.21 1023 10 16 0.00 0.00
3:35 pm 15:35 Mostly Cloudy 82 28 66 19 58 58 SE 3 6 30.21 1023 10 16 0.00 0.00
3:55 pm 15:55 Mostly Cloudy 86 30 64 18 49 49 NE 3 6 30.21 1023 10 16 0.00 0.00
4:15 pm 16:15 Mostly Cloudy 84 29 64 18 51 51 NE 5 7 30.21 1023 10 16 0.00 0.00
4:35 pm 16:35 Partly Cloudy 86 30 64 18 49 49 Calm 30.21 1023 10 16 0.00 0.00
4:55 pm 16:55 Partly Cloudy 86 30 66 19 52 52 ESE 8 13 30.21 1023 10 16 0.00 0.00
5:15 pm 17:15 Sunny 86 30 64 18 49 49 ESE 5 7 30.18 1022 10 16 0.00 0.00
5:35 pm 17:35 Sunny 86 30 64 18 49 49 E 5 7 30.18 1022 10 16 0.00 0.00
5:55 pm 17:55 Sunny 84 29 64 18 51 51 ENE 3 6 30.18 1022 10 16 0.00 0.00
6:15 pm 18:15 Sunny 84 29 64 18 51 51 E 3 6 30.18 1022 10 16 0.00 0.00
6:35 pm 18:35 Sunny 82 28 66 19 58 58 ESE 6 9 30.18 1022 10 16 0.00 0.00
6:55 pm 18:55 Sunny 82 28 66 19 58 58 ESE 6 9 30.18 1022 10 16 0.00 0.00
7:15 pm 19:15 Sunny 81 27 66 19 62 62 ESE 5 7 30.18 1022 10 16 0.00 0.00
7:35 pm 19:35 Sunny 81 27 66 19 62 62 ESE 3 6 30.18 1022 10 16 0.00 0.00
7:55 pm 19:55 Clear 81 27 66 19 62 62 Calm 30.18 1022 10 16 0.00 0.00
8:15 pm 20:15 Clear 79 26 66 19 65 65 ESE 3 6 30.18 1022 10 16 0.00 0.00
8:35 pm 20:35 Clear 77 25 68 20 74 74 Calm 30.18 1022 10 16 0.00 0.00
8:55 pm 20:55 Clear 75 24 68 20 78 78 SE 3 6 30.21 1023 10 16 0.00 0.00
9:15 pm 21:15 Clear 73 23 68 20 83 83 ESE 3 6 30.21 1023 10 16 0.00 0.00
9:35 pm 21:35 Clear 72 22 68 20 88 88 SSW 7 11 30.21 1023 10 16 0.00 0.00
9:55 pm 21:55 Clear 72 22 68 20 88 88 SSW 8 13 30.21 1023 10 16 0.00 0.00
10:15 pm 22:15 Clear 72 22 68 20 88 88 SSW 5 7 30.21 1023 10 16 0.00 0.00
10:35 pm 22:35 Partly Cloudy 70 21 68 20 94 94 S 3 6 30.21 1023 10 16 0.00 0.00
10:55 pm 22:55 Mostly Cloudy 70 21 68 20 94 94 SW 5 7 30.21 1023 10 16 0.00 0.00
11:15 pm 23:15 Mostly Cloudy 70 21 68 20 94 94 SW 5 7 30.21 1023 10 16 0.00 0.00
11:35 pm 23:35 Partly Cloudy 72 22 68 20 88 88 SSW 6 9 30.21 1023 10 16 0.00 0.00
11:55 pm 23:55 Clear 70 21 68 20 94 94 Calm 30.24 1024 10 16 0.00 0.00

Powered by AerisWeather